[[{"header":{"parameterUnit":"m.s-1","parameterCategory":1,"la1":30.2992,"la2":30.254,"lo1":-89.0895,"lo2":-89.0443,"dy":0.0025,"dx":0.0025,"nx":19,"ny":19,"refTime":"2026-03-14T21:00:00:Z","depth":0,"parameterNumber":2,"parameterNumberName":"U-component_of_WINDS"},"data":[0,0,0,4.0152,4.0155,4.0259,4.026,4.0406,4.0407,0,0,0,0,0,0,0,0,0,0,0,4.0127,4.0129,4.0152,4.0155,4.0259,4.026,4.0406,4.0407,0,0,0,0,0,0,0,0,0,0,0,4.0127,4.0128,4.013,4.0155,4.0259,4.026,4.0405,4.0322,0,0,0,0,0,0,0,0,0,0,4.0218,4.0201,4.0128,4.013,4.0156,4.0259,4.026,4.0318,4.0327,4.0363,0,4.0396,0,4.0404,4.0418,4.0418,0,0,0,4.015,4.0193,4.0216,4.013,4.0157,4.0259,4.0211,4.0323,4.0334,4.0376,4.0398,4.0403,4.0407,4.0419,4.042,4.0645,4.0646,0,0,4.0144,4.0149,4.0209,4.0223,4.0207,4.0208,4.0214,4.0329,4.0354,4.0399,4.0407,4.0409,4.042,4.0421,4.0644,4.0645,0,0,0,4.0131,4.0146,4.0165,4.0218,4.0236,4.0211,4.0218,4.0349,4.0355,4.0408,4.0411,4.0421,4.0423,4.0642,4.0644,4.0714,0,0,0,4.0127,4.0138,4.0163,4.0167,4.0234,4.0293,4.0236,4.0347,4.036,4.041,4.0421,4.0424,4.0641,4.0643,4.0709,4.0745,0,0,0,4.0118,4.0137,4.0154,4.0167,4.0213,4.0291,4.0304,4.035,4.0362,4.0418,4.0425,4.064,4.0643,4.0704,4.0738,4.0808,0,0,0,4.011,4.0212,4.0155,4.027,4.0212,4.0333,4.0303,4.0393,4.045,4.0422,4.0641,4.0644,4.0703,4.0733,4.0803,4.0868,4.0895,0,0,4.0241,4.0228,4.0295,4.0248,4.0381,4.0317,4.0461,4.0507,4.0507,4.06,4.0605,4.071,4.0737,4.0807,4.1045,4.1067,0,0,0,4.0339,4.0387,4.0422,4.0477,4.0516,4.0553,4.0577,4.0596,4.0674,4.0556,4.0754,4.077,4.081,4.0841,4.086,4.0895,4.0658,4.0658,4.0658,4.053,4.0527,4.064,4.0651,4.0705,4.0731,4.0776,4.0805,4.0783,4.0831,4.0858,4.1003,4.1039,4.1053,4.109,4.0892,4.0892,4.0892,4.0892,4.0722,4.0792,4.0766,4.0865,4.0863,4.0947,4.0978,4.0961,4.1041,4.0981,4.1017,4.0953,4.1077,4.111,4.0898,4.0897,4.0896,4.0895,4.0895,4.0847,4.088,4.0902,4.0985,4.1049,4.1057,4.1136,4.113,4.1125,4.1161,4.119,4.1189,4.1188,4.1175,4.1176,4.1176,4.1177,4.1177,4.1177,4.0969,4.0991,4.1058,4.1112,4.1149,4.1197,4.1228,4.1265,4.1304,4.1294,4.1294,4.1271,4.109,4.1045,4.1185,4.1184,4.1183,4.1182,4.1182,4.1165,4.1121,4.1223,4.1261,4.1327,4.1393,4.1386,4.1463,4.1492,4.1532,4.1503,4.1369,4.1354,4.134,4.1303,4.1501,4.1501,4.1501,4.1501,4.1271,4.1264,4.137,4.1431,4.1491,4.1497,4.1617,4.1644,4.1665,4.1684,4.1655,4.1605,4.1591,4.1585,4.1565,4.153,4.1782,4.1782,4.1783,4.1392,4.1392,4.1493,4.1514,4.1566,4.1612,4.1726,4.1799,4.1813,4.1794,4.17,4.1688,4.1608,4.1581,4.1558,4.1527,4.1463,0,0]},{"header":{"parameterUnit":"m.s-1","parameterCategory":1,"la1":30.2992,"la2":30.254,"lo1":-89.0895,"lo2":-89.0443,"dy":0.0025,"dx":0.0025,"nx":19,"ny":19,"refTime":"2026-03-14T21:00:00:Z","depth":0,"parameterNumber":3,"parameterNumberName":"V-component_of_WINDS"},"data":[0,0,0,-11.1147,-11.1155,-11.1524,-11.1525,-11.1998,-11.2002,0,0,0,0,0,0,0,0,0,0,0,-11.1042,-11.1045,-11.1146,-11.1156,-11.1524,-11.1526,-11.1997,-11.2002,0,0,0,0,0,0,0,0,0,0,0,-11.104,-11.1044,-11.1049,-11.1157,-11.1524,-11.1526,-11.1996,-11.1716,0,0,0,0,0,0,0,0,0,0,-11.1357,-11.1266,-11.1043,-11.1049,-11.1159,-11.1523,-11.1526,-11.1703,-11.1734,-11.1832,0,-11.1925,0,-11.1972,-11.2034,-11.2036,0,0,0,-11.1151,-11.1241,-11.1337,-11.1049,-11.1163,-11.1523,-11.1356,-11.172,-11.1755,-11.1873,-11.1932,-11.1949,-11.1979,-11.2037,-11.204,-11.2634,-11.2637,0,0,-11.113,-11.111,-11.1312,-11.136,-11.1308,-11.1345,-11.1368,-11.1741,-11.1801,-11.1933,-11.196,-11.1987,-11.2041,-11.2044,-11.2632,-11.2635,0,0,0,-11.1075,-11.1096,-11.1182,-11.134,-11.1407,-11.1355,-11.1382,-11.1785,-11.1815,-11.1965,-11.1993,-11.2043,-11.2049,-11.2628,-11.2633,-11.2764,0,0,0,-11.1063,-11.1063,-11.1174,-11.1164,-11.14,-11.1602,-11.1417,-11.1789,-11.1832,-11.199,-11.2043,-11.2054,-11.2625,-11.2631,-11.2753,-11.2828,0,0,0,-11.1016,-11.1058,-11.1113,-11.1163,-11.1321,-11.1596,-11.1648,-11.1799,-11.185,-11.2036,-11.2055,-11.2623,-11.263,-11.2744,-11.2813,-11.298,0,0,0,-11.0959,-11.1221,-11.1115,-11.1418,-11.1318,-11.1675,-11.1645,-11.1911,-11.2087,-11.2046,-11.2626,-11.2632,-11.2741,-11.2803,-11.297,-11.3118,-11.3178,0,0,-11.1278,-11.1258,-11.1438,-11.1354,-11.1726,-11.162,-11.201,-11.2188,-11.2222,-11.2494,-11.2509,-11.2757,-11.2812,-11.2978,-11.352,-11.3567,0,0,0,-11.1532,-11.1661,-11.1764,-11.1933,-11.2079,-11.2209,-11.233,-11.2396,-11.2629,-11.2359,-11.2862,-11.2896,-11.2994,-11.3066,-11.3106,-11.3192,-11.2665,-11.2664,-11.2663,-11.1951,-11.1986,-11.2285,-11.2364,-11.2528,-11.2653,-11.2788,-11.2897,-11.2879,-11.2998,-11.3079,-11.3404,-11.3487,-11.3518,-11.3607,-11.3159,-11.316,-11.316,-11.3161,-11.2421,-11.261,-11.2585,-11.2867,-11.29,-11.3135,-11.3265,-11.3245,-11.3467,-11.3345,-11.3433,-11.3297,-11.3569,-11.3649,-11.3171,-11.3169,-11.3168,-11.3167,-11.3166,-11.27,-11.2797,-11.2876,-11.3126,-11.3313,-11.3382,-11.3599,-11.3619,-11.3639,-11.3727,-11.3815,-11.3813,-11.3814,-11.3768,-11.3769,-11.377,-11.3771,-11.3772,-11.3772,-11.2959,-11.3044,-11.3227,-11.3405,-11.3517,-11.3667,-11.3796,-11.3905,-11.4032,-11.4029,-11.403,-11.4001,-11.359,-11.3487,-11.379,-11.3787,-11.3785,-11.3783,-11.3782,-11.3424,-11.3323,-11.3604,-11.3718,-11.3929,-11.4114,-11.4139,-11.4361,-11.4454,-11.456,-11.4514,-11.4206,-11.4186,-11.4154,-11.4069,-11.4505,-11.4505,-11.4505,-11.4505,-11.366,-11.3653,-11.3947,-11.4127,-11.4304,-11.4356,-11.4671,-11.4773,-11.4861,-11.4921,-11.486,-11.4749,-11.4715,-11.4715,-11.4671,-11.4592,-11.5152,-11.5152,-11.5153,-11.3948,-11.396,-11.4226,-11.4316,-11.4483,-11.4625,-11.4922,-11.5126,-11.5205,-11.5179,-11.4968,-11.4941,-11.476,-11.47,-11.4669,-11.46,-11.4455,0,0]}]]